[[{"header":{"parameterUnit":"m.s-1","parameterCategory":1,"la1":30.2991,"la2":30.254,"lo1":-89.0895,"lo2":-89.0444,"dy":0.0017,"dx":0.0017,"nx":28,"ny":28,"refTime":"2024-08-17T03:00:00:Z","depth":0,"parameterNumber":2,"parameterNumberName":"U-component_of_WINDS"},"data":[0,0,0,0,0,0,0,0,0,0,0,0,0,0,0,0,0,0,0,0,0,0,0,0,0,0,0,0,0,0,0,0,0,0,0,0,0,0,0,0,0,0,0,0,0,0,0,0,0,0,0,0,0,0,0,0,0,0,3.9507,3.9508,0,3.961,3.9611,3.9612,3.9615,3.9614,3.9613,3.9612,3.9718,3.9721,3.9725,0,0,0,0,0,0,0,0,0,0,0,0,0,3.9318,3.9321,3.9507,3.9508,3.951,3.9609,3.9611,3.9612,3.9615,3.9614,3.9612,3.9611,3.9716,3.9721,3.9726,0,0,0,0,0,0,0,0,0,0,0,0,0,3.9408,3.9322,3.9507,3.9523,3.9526,3.9609,3.9611,3.9613,3.9616,3.9614,3.9612,3.961,3.9715,3.972,3.9726,3.98,0,0,3.9745,3.9747,0,0,0,0,0,0,0,0,3.9403,3.9415,3.952,3.9522,3.9525,3.9598,3.9583,3.9676,3.9616,3.9582,3.9611,3.9609,3.9679,3.9688,3.9711,3.9805,3.981,3.9745,3.9749,3.9751,3.9753,0,0,0,0,0,0,0,3.9396,3.941,3.9548,3.9521,3.9525,3.9527,3.9537,3.96,3.964,3.9584,3.9585,3.9597,3.968,3.9706,3.9714,3.9812,3.9745,3.975,3.9754,3.9756,3.9975,3.9977,0,0,0,0,0,0,3.9387,3.9405,3.9544,3.9551,3.9458,3.9531,3.9544,3.9576,3.9639,3.9647,3.9598,3.9597,3.9696,3.9707,3.9718,3.981,3.9751,3.9757,3.976,3.9972,3.9975,3.9977,0,0,0,0,0,0,3.9383,3.9399,3.954,3.9478,3.9496,3.9537,3.9574,3.9579,3.9604,3.965,3.9657,3.9617,3.9695,3.9709,3.978,3.9814,3.976,3.9765,3.997,3.9973,3.9976,3.9994,0,0,0,0,0,0,3.9377,3.9398,3.9425,3.9479,3.95,3.96,3.9576,3.9583,3.9615,3.9613,3.9669,3.9676,3.9695,3.9771,3.9786,3.9821,3.977,3.9967,3.9971,3.9975,3.9991,3.9998,4.0004,0,0,0,0,0,3.937,3.9426,3.9426,3.9443,3.9535,3.9602,3.9614,3.9634,3.9617,3.9646,3.9676,3.9674,3.9808,3.9779,3.9795,3.9832,3.9965,3.997,3.9975,3.9988,3.9996,4.0004,0,0,0,0,0,0,3.9375,3.9433,3.9434,3.9509,3.9551,3.9603,3.9639,3.9642,3.969,3.9687,3.9711,3.9723,3.9794,3.9821,3.9787,3.9909,3.9885,3.9893,3.9889,3.9897,3.9903,3.9896,3.9775,0,0,0,0,0,3.9384,3.9434,3.9482,3.9543,3.9564,3.9598,3.9628,3.9641,3.9685,3.9703,3.9737,3.9781,3.9833,3.9867,3.9917,3.9995,4.0008,4.0029,4.0036,4.0041,4.0048,4.0093,4.0103,3.9994,3.9994,3.9994,0,0,3.9405,3.9443,3.9472,3.9545,3.9579,3.963,3.9613,3.9668,3.9706,3.9711,3.9781,3.9808,3.9858,3.9934,3.9969,3.9958,4.0081,4.0047,4.0051,4.0055,4.0099,4.011,4.0119,3.9997,3.9997,3.9996,0,0,3.9468,3.9501,3.9557,3.9591,3.9643,3.9666,3.9679,3.9732,3.975,3.982,3.9826,3.9873,3.9961,3.9998,4.0028,4.0108,4.011,4.0124,4.0158,4.0202,4.021,4.0218,4.0248,4.0258,4.0131,4.0131,4.0131,0,3.9487,3.9564,3.9585,3.964,3.9673,3.968,3.9737,3.977,3.9836,3.9859,3.9846,3.9959,3.9993,4.0078,4.0098,4.0122,4.0139,4.0118,4.0207,4.0215,4.0223,4.0252,4.0263,4.0133,4.0133,4.0133,4.0132,0,3.9585,3.9639,3.9677,3.9741,3.9778,3.9834,3.9865,3.99,3.991,3.9935,4.0008,4.005,4.011,4.0131,4.0141,4.0219,4.021,4.0202,4.0178,4.0234,4.0262,4.0273,4.0135,4.0134,4.0134,4.0134,0,0,3.9652,3.9728,3.9742,3.9772,3.9831,3.9874,3.9931,3.999,4.002,4.0066,4.0116,4.0192,4.0186,4.022,4.0234,4.0273,4.0336,4.026,4.0262,4.0273,4.0426,4.0432,4.0444,4.0338,4.034,4.0341,4.0422,0,3.9722,3.9824,3.9846,3.9934,3.9985,3.9994,4.0044,4.0086,4.0112,4.016,4.0188,4.0242,4.0229,4.025,4.0289,4.032,4.0367,4.0315,4.0385,4.0387,4.0372,4.0458,4.0464,4.0538,4.0433,4.0435,4.0436,0,3.9817,3.9866,3.9959,4.0013,4.0036,4.008,4.0137,4.0182,4.0232,4.0248,4.0287,4.0298,4.036,4.0334,4.042,4.0384,4.0414,4.0435,4.0438,4.0445,4.0414,4.0468,4.0562,4.0573,4.0453,4.0452,4.045,0,3.9858,3.9947,4.0015,4.004,4.0105,4.0136,4.0165,4.0212,4.0247,4.0297,4.032,4.0377,4.0408,4.0452,4.0479,4.0457,4.0564,4.054,4.058,4.0579,4.0601,4.06,4.0701,4.0621,4.0621,4.0621,4.062,0,3.9934,3.9991,4.0034,4.0076,4.014,4.0166,4.023,4.0259,4.0301,4.035,4.0361,4.0407,4.0439,4.049,4.0511,4.058,4.0594,4.061,4.0615,4.0609,4.0607,4.0629,4.0624,4.0624,4.0623,4.0622,4.0622,0,3.999,4.0021,4.0096,4.0152,4.0167,4.0213,4.0261,4.0303,4.0329,4.0391,4.0407,4.0448,4.0509,4.054,4.0615,4.063,4.0708,4.071,4.0691,4.0693,4.0732,4.0728,4.0851,4.0869,4.0777,4.0777,4.0778,0,4.0036,4.008,4.0142,4.0175,4.0204,4.0258,4.0294,4.0322,4.0359,4.042,4.0454,4.0515,4.0565,4.0662,4.0699,4.0758,4.0761,4.0801,4.077,4.0763,4.0763,4.076,4.0765,4.0806,4.0807,4.0807,4.0808,0,4.0116,4.013,4.0181,4.0238,4.028,4.0327,4.0373,4.0399,4.0435,4.0477,4.0538,4.0577,4.0655,4.0716,4.0778,4.0808,4.0815,4.0818,4.083,4.0824,4.0812,4.082,4.0706,4.0814,4.0814,4.0813,4.0813,4.0813,4.0169,4.0209,4.0259,4.0316,4.0354,4.0397,4.044,4.0472,4.0524,4.0589,4.0603,4.0669,4.072,4.0803,4.0836,4.0889,4.0881,4.0898,4.0903,4.0907,4.0909,4.0804,4.09,4.09,4.09,4.09,4.09,0,4.025,4.0283,4.0335,4.04,4.0445,4.0447,4.0499,4.0537,4.0595,4.0641,4.0691,4.0763,4.0823,4.0866,4.0928,4.0962,4.0967,4.0977,4.0975,4.0982,4.0913,4.0896,4.0972,4.0972,4.0972,4.0972,4.0972,4.0972,4.0297,4.0366,4.0386,4.0475,4.0508,4.0572,4.0602,4.0643,4.068,4.076,4.081,4.0838,4.0884,4.0949,4.1005,4.1016,4.1038,4.1049,4.106,4.0994,4.0987,4.0979,4.0964,4.1053,4.1053,4.1126,4.1126,4.1127]},{"header":{"parameterUnit":"m.s-1","parameterCategory":1,"la1":30.2991,"la2":30.254,"lo1":-89.0895,"lo2":-89.0444,"dy":0.0017,"dx":0.0017,"nx":28,"ny":28,"refTime":"2024-08-17T03:00:00:Z","depth":0,"parameterNumber":3,"parameterNumberName":"V-component_of_WINDS"},"data":[0,0,0,0,0,0,0,0,0,0,0,0,0,0,0,0,0,0,0,0,0,0,0,0,0,0,0,0,0,0,0,0,0,0,0,0,0,0,0,0,0,0,0,0,0,0,0,0,0,0,0,0,0,0,0,0,0,0,-1.1261,-1.1261,0,-1.1286,-1.1286,-1.1287,-1.1295,-1.1295,-1.1295,-1.1295,-1.1321,-1.1322,-1.1322,0,0,0,0,0,0,0,0,0,0,0,0,0,-1.1221,-1.1221,-1.1261,-1.1261,-1.1261,-1.1286,-1.1286,-1.1287,-1.1295,-1.1295,-1.1295,-1.1295,-1.1321,-1.1322,-1.1322,0,0,0,0,0,0,0,0,0,0,0,0,0,-1.1241,-1.1222,-1.1261,-1.1269,-1.127,-1.1286,-1.1286,-1.1287,-1.1295,-1.1295,-1.1295,-1.1295,-1.132,-1.1321,-1.1323,-1.1333,0,0,-1.1326,-1.1327,0,0,0,0,0,0,0,0,-1.124,-1.1243,-1.1267,-1.1268,-1.1269,-1.1287,-1.1282,-1.1302,-1.1295,-1.1286,-1.1295,-1.1295,-1.131,-1.1312,-1.1317,-1.1334,-1.1335,-1.1326,-1.1327,-1.1328,-1.1328,0,0,0,0,0,0,0,-1.1239,-1.1242,-1.1271,-1.1267,-1.1269,-1.1271,-1.1274,-1.1286,-1.1298,-1.1286,-1.1287,-1.129,-1.131,-1.1316,-1.1318,-1.1336,-1.1326,-1.1327,-1.1328,-1.1329,-1.1365,-1.1365,0,0,0,0,0,0,-1.1236,-1.124,-1.127,-1.1272,-1.1254,-1.1272,-1.1275,-1.1282,-1.1298,-1.1301,-1.129,-1.129,-1.1314,-1.1316,-1.1319,-1.1333,-1.1328,-1.1329,-1.1329,-1.1365,-1.1365,-1.1365,0,0,0,0,0,0,-1.1235,-1.1238,-1.1269,-1.1256,-1.126,-1.1273,-1.128,-1.1282,-1.1288,-1.1301,-1.1303,-1.1293,-1.1314,-1.1317,-1.133,-1.1334,-1.1329,-1.133,-1.1364,-1.1365,-1.1365,-1.1361,0,0,0,0,0,0,-1.1234,-1.1238,-1.1242,-1.1256,-1.1261,-1.1279,-1.128,-1.1283,-1.129,-1.129,-1.1305,-1.1307,-1.1314,-1.1328,-1.1331,-1.1336,-1.1331,-1.1364,-1.1364,-1.1365,-1.1361,-1.1361,-1.1362,0,0,0,0,0,-1.1232,-1.1239,-1.1242,-1.1245,-1.1266,-1.1279,-1.1282,-1.129,-1.129,-1.1294,-1.1303,-1.1306,-1.1333,-1.1329,-1.1333,-1.1338,-1.1364,-1.1364,-1.1365,-1.1361,-1.1361,-1.1362,0,0,0,0,0,0,-1.1224,-1.1241,-1.1244,-1.1256,-1.1266,-1.1281,-1.1286,-1.129,-1.1301,-1.1301,-1.1311,-1.1314,-1.1326,-1.1333,-1.1329,-1.135,-1.1349,-1.135,-1.1344,-1.1345,-1.1345,-1.1343,-1.1332,0,0,0,0,0,-1.1224,-1.1233,-1.1248,-1.1257,-1.1262,-1.1273,-1.1279,-1.1285,-1.1296,-1.13,-1.131,-1.1321,-1.1332,-1.1339,-1.135,-1.1362,-1.1366,-1.1367,-1.1368,-1.1368,-1.1369,-1.1378,-1.1379,-1.1367,-1.1367,-1.1367,0,0,-1.1223,-1.1233,-1.1239,-1.1255,-1.1264,-1.1274,-1.1277,-1.1287,-1.1295,-1.1302,-1.1315,-1.1323,-1.1335,-1.1349,-1.1355,-1.1355,-1.1373,-1.1369,-1.1369,-1.137,-1.1379,-1.138,-1.1381,-1.1367,-1.1367,-1.1367,0,0,-1.1227,-1.1235,-1.1244,-1.1253,-1.1267,-1.1275,-1.1277,-1.1291,-1.1297,-1.131,-1.1316,-1.1326,-1.1344,-1.1354,-1.1361,-1.137,-1.1374,-1.1374,-1.1376,-1.1384,-1.1385,-1.1386,-1.139,-1.1392,-1.1375,-1.1375,-1.1375,0,-1.1224,-1.1239,-1.1248,-1.1259,-1.1267,-1.1274,-1.1284,-1.1292,-1.1309,-1.1314,-1.1314,-1.1338,-1.1347,-1.1364,-1.1366,-1.1371,-1.1375,-1.1372,-1.1384,-1.1385,-1.1386,-1.139,-1.1392,-1.1375,-1.1375,-1.1375,-1.1375,0,-1.1236,-1.1246,-1.1252,-1.1268,-1.1277,-1.1287,-1.1298,-1.1306,-1.1311,-1.1319,-1.1334,-1.1345,-1.1359,-1.1363,-1.1368,-1.1381,-1.1381,-1.1382,-1.1381,-1.1387,-1.1391,-1.1393,-1.1374,-1.1374,-1.1374,-1.1374,0,0,-1.1234,-1.1256,-1.1258,-1.1266,-1.1283,-1.1291,-1.1303,-1.1317,-1.1323,-1.1335,-1.1345,-1.1361,-1.1363,-1.1371,-1.1378,-1.1385,-1.1394,-1.1386,-1.1387,-1.1388,-1.141,-1.1409,-1.141,-1.1396,-1.1397,-1.1397,-1.1409,0,-1.124,-1.126,-1.127,-1.1286,-1.1296,-1.1305,-1.1315,-1.1326,-1.1335,-1.1345,-1.1355,-1.1367,-1.1368,-1.1373,-1.1381,-1.1391,-1.1398,-1.139,-1.1407,-1.1407,-1.1403,-1.1412,-1.1411,-1.1421,-1.141,-1.1411,-1.1411,0,-1.125,-1.1262,-1.1279,-1.1296,-1.1301,-1.1309,-1.1324,-1.1334,-1.1348,-1.1353,-1.1364,-1.137,-1.1383,-1.1382,-1.14,-1.1395,-1.1402,-1.1409,-1.1409,-1.1411,-1.1409,-1.1415,-1.1425,-1.1426,-1.1413,-1.1413,-1.1413,0,-1.1248,-1.1268,-1.1282,-1.1288,-1.1308,-1.1314,-1.1322,-1.1336,-1.1345,-1.1358,-1.1363,-1.1377,-1.1385,-1.1396,-1.1407,-1.1405,-1.1425,-1.1424,-1.1431,-1.1431,-1.1434,-1.1434,-1.1446,-1.1439,-1.1439,-1.1439,-1.1439,0,-1.1254,-1.1264,-1.1281,-1.1289,-1.1302,-1.1313,-1.1326,-1.1335,-1.1347,-1.1358,-1.1366,-1.1376,-1.1389,-1.1401,-1.141,-1.1425,-1.1428,-1.1433,-1.1436,-1.1433,-1.1432,-1.1438,-1.1438,-1.1439,-1.1439,-1.1439,-1.1439,0,-1.1253,-1.1265,-1.128,-1.1298,-1.1303,-1.1311,-1.1327,-1.1336,-1.1345,-1.1359,-1.1363,-1.1378,-1.1392,-1.1404,-1.1423,-1.1429,-1.1445,-1.1447,-1.144,-1.1442,-1.1448,-1.1447,-1.1464,-1.1467,-1.1457,-1.1457,-1.1457,0,-1.1256,-1.1265,-1.1284,-1.1292,-1.13,-1.1313,-1.1322,-1.1334,-1.1343,-1.1361,-1.1368,-1.1383,-1.1396,-1.142,-1.1432,-1.1448,-1.145,-1.1455,-1.1453,-1.145,-1.1452,-1.1451,-1.1453,-1.1456,-1.1456,-1.1456,-1.1456,0,-1.1261,-1.1267,-1.1279,-1.1295,-1.1306,-1.1318,-1.1331,-1.1337,-1.1352,-1.1362,-1.1377,-1.1387,-1.1408,-1.1423,-1.144,-1.145,-1.1456,-1.1457,-1.1459,-1.1456,-1.1452,-1.1456,-1.1442,-1.1456,-1.1456,-1.1456,-1.1456,-1.1456,-1.1263,-1.1271,-1.1286,-1.1301,-1.1312,-1.1324,-1.1334,-1.1345,-1.1358,-1.1376,-1.1382,-1.1399,-1.1414,-1.1437,-1.1447,-1.1461,-1.1461,-1.1464,-1.1465,-1.1466,-1.1466,-1.145,-1.1464,-1.1464,-1.1464,-1.1464,-1.1464,0,-1.1268,-1.1279,-1.1292,-1.131,-1.1322,-1.1327,-1.1342,-1.1352,-1.1366,-1.138,-1.1393,-1.1412,-1.1427,-1.1442,-1.1459,-1.1467,-1.147,-1.1471,-1.1471,-1.1473,-1.1464,-1.1461,-1.1468,-1.1468,-1.1468,-1.1468,-1.1468,-1.1468,-1.1273,-1.1288,-1.1296,-1.1317,-1.1328,-1.1344,-1.1352,-1.1364,-1.1375,-1.1396,-1.1409,-1.1419,-1.1434,-1.1452,-1.1467,-1.1471,-1.1477,-1.1478,-1.1482,-1.1474,-1.1473,-1.1473,-1.147,-1.1479,-1.1479,-1.149,-1.149,-1.149]}]]